Regional Weather Roundup
Issued by NWS

Home | Current Version | Previous Version | Graphics & Text | Print | Product List | Glossary On
Versions: 1 2 3 4 5 6 7 8 9 10 11 12 13 14 15 16 17 18 19 20 21 22 23 24 25 26 27 28 29 30 31 32 33 34 35 36 37 38 39 40 41 42 43 44 45 46 47 48 49 50
539
ASUS43 KLMK 191510
RWRKY
KENTUCKY REGIONAL WEATHER ROUNDUP
NATIONAL WEATHER SERVICE LOUISVILLE KY
1100 AM EDT SAT AUG 19 2017

NOTE "FAIR" INDICATES FEW OR NO CLOUDS BELOW 12,000 FEET
WITH NO SIGNIFICANT WEATHER AND/OR OBSTRUCTIONS TO VISIBILITY.

KYZ001>023-026-027-061>063-070>075-191600-
WESTERN AND SOUTH CENTRAL KENTUCKY

CITY           SKY/WX    TMP DP  RH WIND       PRES   REMARKS
PADUCAH        PTSUNNY   84  69  60 VRB3      29.96R
HENDERSON      CLOUDY    73  70  90 SW3       29.97F
OWENSBORO      PTSUNNY   74  69  85 W6        30.01R
HOPKINSVILLE   SUNNY     83  69  62 SW3       29.99S
BOWLING GREEN  CLOUDY    81  71  71 CALM      30.01S
GLASGOW        MOSUNNY   80  68  68 CALM      30.02S
$$

KYZ024-025-028>034-038-045-046-053-191600-
NORTH CENTRAL KENTUCKY

CITY           SKY/WX    TMP DP  RH WIND       PRES   REMARKS
LOUISVILLE/SDF PTSUNNY   82  68  62 SW7       29.99R
LOUISVILLE/LOU MOSUNNY   80  70  71 S8        29.99R
FORT KNOX      CLOUDY    80  69  69 S5        29.99S
$$

KYZ035>037-039>044-047>052-055>060-089>105-191600-
NORTHEAST KENTUCKY

CITY           SKY/WX    TMP DP  RH WIND       PRES   REMARKS
LEXINGTON      SUNNY     79  66  64 SW7       30.01R
COVINGTON      CLOUDY    76  69  79 SW8       29.97R
FRANKFORT      MOSUNNY   79  65  62 S9        29.98S
$$

KYZ054-064>069-076>088-106>120-191600-
SOUTHEAST KENTUCKY

CITY           SKY/WX    TMP DP  RH WIND       PRES   REMARKS
JACKSON        SUNNY     76  68  76 CALM      30.04S
LONDON         SUNNY     76  66  71 SW6       30.04S
SOMERSET       SUNNY     75  64  69 CALM      30.05R
MIDDLESBORO    MOSUNNY   69  66  92 CALM      30.07S
MONTICELLO     SUNNY     81  69  67 W10       30.05S
$$





USA.gov is the U.S. government's official web portal to all federal, state and local government web resources and services.